Location: Newark
(35.0167°N, 135.7667°E)
Time: 09:13:30
(UTC+00:00)

N. Korean satellite - Pass Details

Date: 28 October 2019
Orbit: 456 x 506 km, 97.2° (Epoch: 20 November)

Event Time Altitude Azimuth Distance (km) Brightness Sun altitude
Rises 20:16:38 0° 22° (NNE) 2,592 10.5 -12.4°
Reaches altitude 10° 20:18:52 10° 33° (NNE) 1,711 9.7 -12.0°
Maximum altitude 20:22:12 32° 97° (E) 880 8.7 -11.3°
Drops below altitude 10° 20:25:33 10° 162° (SSE) 1,710 9.7 -10.6°
Sets 20:27:47 0° 173° (S) 2,592 10.5 -10.2°
